浦田-新島彗星

112P/Urata-Niijima (2013)

English version
Home page
Updated on March 7, 2020

---------------------------------------------------------------------

・ プロフィール

・ 軌道要素

Epoch 2013 July 7.0 TT = JDT 2456480.5                                          
T 2013 June 24.31169 TT                                 MPCW                    
q   1.4553106            (2000.0)            P               Q                  
n   0.14839516     Peri.   21.45001     +0.61354671     -0.75931195             
a   3.5333736      Node    31.92696     +0.65168455     +0.33183273             
e   0.5881243      Incl.   24.20302     +0.44594582     +0.55976103             
P   6.64                                                                        
From 377 observations 1986 Oct. 4-2019 Oct. 21, mean residual 0".7.             
     Nongravitational parameters A1 = -0.01, A2 = +0.0066.                      

・ 光度変化

        m1 = 12.7 + 5 logΔ + 20.0 log r(t - 30)

---------------------------------------------------------------------

軌道要素はM.P.E.C. 2019-V116に掲載されたものです。
光度グラフはComet for Windowsで作成したものです。

---------------------------------------------------------------------

Copyright(C) Seiichi Yoshida (comet@aerith.net). All rights reserved.